Weather History for KODX - February, 2014

Change the Weather History Date:

Tuesday, February 11, 2014

  Actual Average Record
Temperature  
Mean Temperature 20 °F 27 °F  
Max Temperature 29 °F 39 °F 64 °F (2002)
Min Temperature 10 °F 15 °F -4 °F (2012)
Degree Days  
Heating Degree Days 45 38  
Month to date heating degree days 619 427  
Since 1 July heating degree days 4403  
Cooling Degree Days 0 0  
Month to date cooling degree days 0 0  
Year to date cooling degree days 0 0  
Moisture  
Dew Point 15 °F    
Average Humidity 81    
Maximum Humidity 88    
Minimum Humidity 74    
Precipitation  
Precipitation 0.00 in 0.02 in 0.25 in (1993)
Month to date precipitation 0.14 0.20  
Year to date precipitation 0.20 0.57  
Sea Level Pressure  
Sea Level Pressure 30.17 in    
Wind  
Wind Speed 12 mph (South)    
Max Wind Speed 23 mph    
Max Gust Speed 29 mph    
Visibility 8 miles    
Events      
T = Trace of Precipitation, MM = Missing Value Source: NWS Daily Summary

Daily Weather History Graph

Daily Weather History Graph

Search for Another Location

Airport or City:

Trip Planner

Search our weather history database for the weather conditions in past years. The results will help you decide how hot, cold, wet, or windy it might be!

Date:

Astronomy

Feb. 11, 2014 Rise Set
Actual Time 7:36 AM CST 6:04 PM CST
Civil Twilight 7:07 AM CST 6:33 PM CST
Nautical Twilight 6:34 AM CST 7:05 PM CST
Astronomical Twilight 6:02 AM CST 7:38 PM CST
Moon 3:25 PM CST (2/11) 5:15 AM CST (2/11)
Length of Visible Light 11h 25m
Length of Day
10h 28m
Waxing Gibbous, 91% of the Moon is Illuminated
Feb 11
Waxing Gibbous
Feb 14
Full
Feb 22
Last Quarter
Mar 1
New
Mar 8
First Quarter

Hourly Weather History & Observations

Time (CST) Temp. Windchill Dew Point Humidity Pressure Visibility Wind Dir Wind Speed Gust Speed Precip Events Conditions
12:45 AM 10.9 °F 0.2 °F 6.1 °F 81% 30.29 in 10.0 mi SSE 6.9 mph - N/A   Mostly Cloudy
12:53 AM 10.0 °F -0.9 °F 5.0 °F 80% 30.42 in 10.0 mi South 6.9 mph - N/A   Scattered Clouds
1:12 AM 10.0 °F 3.6 °F 6.1 °F 84% 30.29 in 10.0 mi South 3.5 mph - N/A   Mostly Cloudy
1:53 AM 10.9 °F 2.9 °F 7.0 °F 84% 30.42 in 10.0 mi South 4.6 mph - N/A   Overcast
2:53 AM 10.9 °F -1.8 °F 7.0 °F 84% 30.40 in 10.0 mi SSE 9.2 mph - N/A   Overcast
3:53 AM 12.0 °F -1.3 °F 7.0 °F 80% 30.37 in 10.0 mi South 10.4 mph - N/A   Overcast
4:53 AM 12.0 °F -1.3 °F 8.1 °F 84% 30.35 in 9.0 mi South 10.4 mph - N/A   Overcast
5:53 AM 12.9 °F 0.7 °F 9.0 °F 84% 30.35 in 10.0 mi South 9.2 mph - N/A   Overcast
6:15 AM 14.0 °F 1.2 °F 9.0 °F 80% 30.22 in 10.0 mi South 10.4 mph - N/A   Overcast
6:45 AM 14.0 °F 0.5 °F 9.0 °F 80% 30.21 in 10.0 mi South 11.5 mph - N/A   Overcast
6:53 AM 14.0 °F -0.8 °F 9.0 °F 80% 30.32 in 10.0 mi South 13.8 mph - N/A   Overcast
7:53 AM 14.0 °F -1.4 °F 10.0 °F 84% 30.32 in 7.0 mi South 15.0 mph - N/A   Overcast
8:53 AM 14.0 °F -1.4 °F 10.0 °F 84% 30.31 in 6.0 mi South 15.0 mph - N/A   Overcast
9:28 AM 15.1 °F 1.1 °F 10.0 °F 80% 30.17 in 9.0 mi South 12.7 mph - N/A   Overcast
9:44 AM 16.0 °F 1.1 °F 10.9 °F 81% 30.17 in 9.0 mi South 15.0 mph - N/A   Overcast
9:53 AM 16.0 °F 1.1 °F 10.9 °F 81% 30.29 in 9.0 mi South 15.0 mph - N/A   Overcast
10:53 AM 17.1 °F 1.5 °F 12.0 °F 81% 30.27 in 8.0 mi South 17.3 mph - N/A   Overcast
11:10 AM 18.0 °F 3.1 °F 12.0 °F 78% 30.16 in 9.0 mi South 16.1 mph - N/A   Overcast
11:40 AM 19.0 °F 5.0 °F 14.0 °F 81% 30.14 in 8.0 mi South 15.0 mph - N/A   Overcast
11:53 AM 19.9 °F 5.7 °F 14.0 °F 78% 30.25 in 8.0 mi South 16.1 mph - N/A   Overcast
12:48 PM 21.2 °F 6.8 °F 15.8 °F 80% 30.09 in 7.0 mi South 17.3 mph 25.3 mph N/A   Overcast
12:53 PM 21.0 °F 5.7 °F 16.0 °F 81% 30.20 in 7.0 mi South 19.6 mph - N/A   Overcast
1:33 PM 24.1 °F 8.7 °F 17.1 °F 75% 30.04 in 8.0 mi South 23.0 mph - N/A   Scattered Clouds
1:53 PM 24.1 °F 10.1 °F 18.0 °F 77% 30.13 in 7.0 mi South 18.4 mph - N/A   Partly Cloudy
2:45 PM 25.0 °F 12.2 °F 19.0 °F 78% 30.01 in 7.0 mi SSW 16.1 mph - N/A   Mostly Cloudy
2:53 PM 25.0 °F 10.9 °F 19.0 °F 78% 30.11 in 7.0 mi South 19.6 mph - N/A   Mostly Cloudy
3:29 PM 27.0 °F 14.7 °F 21.0 °F 78% 29.99 in 7.0 mi South 16.1 mph - N/A   Overcast
3:53 PM 27.0 °F 14.3 °F 21.0 °F 78% 30.09 in 7.0 mi SSW 17.3 mph - N/A   Mostly Cloudy
4:01 PM 27.0 °F 13.9 °F 21.0 °F 78% 29.98 in 7.0 mi South 18.4 mph - N/A   Scattered Clouds
4:53 PM 28.0 °F 15.3 °F 21.9 °F 78% 30.05 in 7.0 mi South 18.4 mph - N/A   Clear
5:53 PM 28.0 °F 16.1 °F 23.0 °F 81% 30.04 in 6.0 mi SSW 16.1 mph - N/A   Haze
6:27 PM 28.0 °F 16.1 °F 24.1 °F 85% 29.95 in 8.0 mi SSW 16.1 mph - N/A   Mostly Cloudy
6:53 PM 28.0 °F 16.5 °F 23.0 °F 81% 30.05 in 9.0 mi South 15.0 mph - N/A   Scattered Clouds
7:53 PM 26.1 °F 16.8 °F 21.0 °F 81% 30.04 in 10.0 mi SE 9.2 mph - N/A   Clear
8:53 PM 25.0 °F 17.1 °F 21.0 °F 85% 30.04 in 9.0 mi South 6.9 mph - N/A   Scattered Clouds
9:53 PM 26.1 °F 18.4 °F 21.0 °F 81% 30.03 in 9.0 mi South 6.9 mph - N/A   Scattered Clouds
10:53 PM 26.1 °F 20.5 °F 21.9 °F 84% 30.01 in 9.0 mi SSE 4.6 mph - N/A   Mostly Cloudy
11:53 PM 25.0 °F - 21.9 °F 88% 30.00 in 8.0 mi Calm Calm - N/A   Partly Cloudy